Regional Weather Roundup
Issued by NWS

Home | Current Version | Previous Version | Text Only | Print | Product List | Glossary On
Versions: 1 2 3 4 5 6 7 8 9 10 11 12 13 14 15 16 17 18 19 20 21 22 23 24 25 26 27 28 29 30 31 32 33 34 35 36 37 38 39 40 41 42 43 44 45 46 47 48 49 50
000
ASUS43 KMPX 211510
RWRMN
WEATHER ROUNDUP FOR MINNESOTA
NATIONAL WEATHER SERVICE TWIN CITIES/CHANHASSEN MN
1000 AM CDT TUE OCT 21 2014


NOTE: "FAIR" INDICATES FEW OR NO CLOUDS BELOW 12,000 FEET WITH NO
SIGNIFICANT WEATHER AND/OR OBSTRUCTIONS TO VISIBILITY. N/A MEANS
CURRENT SKY AND/OR WEATHER CONDITIONS ARE NOT AVAILABLE.

MNZ060>063-068>070-211600-
   Twin Cities Metro

CITY           SKY/WX    TMP DP  RH WIND       PRES   REMARKS
TWIN CITIES    SUNNY     46  38  73 E14       30.21S
ST PAUL        SUNNY     45  39  79 SE14      30.23R
CRYSTAL        SUNNY     48  39  71 E10       30.19S
BLAINE         SUNNY     48  43  81 E9          N/A
LAKEVILLE      SUNNY     41  41 100 E8        30.20S
EDEN PRAIRIE   SUNNY     48  39  71 SE12      30.19S
SOUTH ST PAUL  SUNNY     46  38  74 SE5       30.22S
LAKE ELMO      FAIR      45  37  76 E6        30.23R
$$
MNZ001>005-007-008-013>017-022>024-027-028-211600-
   Northwest Minnesota

CITY           SKY/WX    TMP DP  RH WIND       PRES   REMARKS
BEMIDJI        SUNNY     42  38  86 SE13G20   30.12F
HALLOCK        SUNNY     45  39  81 SE17      30.01F
ROSEAU         SUNNY     45  39  81 SE15      30.08S
WARROAD        SUNNY     43  39  87 SE12      30.11S
THIEF RVR FALL SUNNY     45  39  81 SE14      30.06S
CROOKSTON      SUNNY     46  41  81 S20       30.04F
FOSSTON        SUNNY     46  41  81 SE6G18    30.07S
DETROIT LAKES  SUNNY     45  39  81 SE16G22   30.08S
MOORHEAD       SUNNY     48  45  87 S17G24    30.04S
PARK RAPIDS    SUNNY     43  38  82 SE15      30.13S
MAHNOMEN       FAIR      46  38  74 SE13G20   30.06S
$$
MNZ006-009>011-018-025>026-211600-
   North Central Minnesota

CITY           SKY/WX    TMP DP  RH WIND       PRES   REMARKS
BAUDETTE       SUNNY     42  37  82 SE12G18   30.13S
FLAG ISLAND    SUNNY     45  37  76 SE15      30.12R
INTL FALLS     CLOUDY    42  35  76 SE8       30.19R
WASKISH        SUNNY     41  39  93 SE8       30.13S
BIG FORK       MOSUNNY   43  37  81 SE9       30.18S
LONGVILLE      SUNNY     41  39  93 SE9       30.16S
GRAND RAPIDS   MOSUNNY   41  36  81 SE14G20   30.19S
CRANE LAKE     CLOUDY    39  36  87 SE3       30.24R
ORR            CLOUDY    41  32  70 SE7       30.20R
COOK           CLOUDY    39  34  81 SE7       30.23R
WALKER         FAIR      44  38  78 S8        30.15R
$$
MNZ012-019>021-037-211600-
   Northeast Minnesota

CITY           SKY/WX    TMP DP  RH WIND       PRES   REMARKS
DULUTH         CLOUDY    42  33  70 SE10      30.23R
ELY            CLOUDY    37  34  87 SE8       30.24R
HIBBING        CLOUDY    42  35  76 SE9       30.22R
EVELETH        CLOUDY    39  34  81 SE10G17   30.23R
DULUTH HARBOR  CLOUDY    45  37  76 E10G16    30.27R
TWO HARBORS    CLOUDY    45  27  49 E9        30.23S
SILVER BAY     CLOUDY    43  36  75 E5        30.24R
GRAND MARAIS     N/A     41  32  70 NE5       30.30R
G MARAIS ARPRT CLOUDY    34  28  80 E3        30.26S
$$
MNZ029>031-032-039>041-046>048-054>057-064-211600-
   West Central Minnesota

CITY           SKY/WX    TMP DP  RH WIND       PRES   REMARKS
FERGUS FALLS   SUNNY     48  37  66 SE18G24   30.08S
WHEATON        SUNNY     45  37  76 SE18      30.06F
MORRIS         SUNNY     46  41  81 SE16      30.07F
ALEXANDRIA     SUNNY     45  40  82 SE14      30.13S
ELBOW LAKE     FAIR      47  39  73 SE18G24   30.07F
WADENA         SUNNY     43  37  81 SE15      30.12S
GLENWOOD       SUNNY     45  41  87 SE14      30.13S
APPLETON       SUNNY     48  41  76 SE10      30.09S
BENSON         SUNNY     46  41  81 S16       30.11F
ORTONVILLE     SUNNY     45  39  81 SE15G21   30.06F
MADISON        SUNNY     48  43  81 SE12        N/A
WILLMAR        FAIR      48  39  71 SE13      30.15S
$$
MNZ033>034-036-042>043-049>051-058-059-211600-
   Central Minnesota

CITY           SKY/WX    TMP DP  RH WIND       PRES   REMARKS
ST CLOUD       SUNNY     49  39  68 SE8       30.18S
SAUK CENTRE    FAIR      45  40  82 SE10G16   30.15R
PAYNESVILLE    SUNNY     44  40  86 E10       30.16S
AITKIN         SUNNY     45  37  76 E7        30.17F
PINE RIVER     MOSUNNY   43  39  87 SE13      30.18S
BRAINERD       SUNNY     44  39  82 SE10      30.18R
STAPLES        SUNNY     45  37  76 SE12      30.14S
LONG PRAIRIE   FAIR      43  37  81 E9G16     30.15S
LITTLE FALLS   SUNNY     45  37  76 SE8       30.17S
LITCHFIELD     SUNNY     48  45  87 SE13      30.16S
BUFFALO        SUNNY     46  39  75 E9        30.19S
MAPLE LAKE     SUNNY     47  42  83 E6        30.19S
$$
MNZ037-044-045-052-053-211600-
   East Central Minnesota

CITY           SKY/WX    TMP DP  RH WIND       PRES   REMARKS
PRINCETON      SUNNY     45  39  81 E8        30.20S
MORA           SUNNY     45  41  87 E8        30.22S
CAMBRIDGE      SUNNY     48  37  66 E12       30.19S
RUSH CITY      MOSUNNY   43  38  82 E5        30.23R
MOOSE LAKE     CLOUDY    43  36  75 SE5       30.21S
HINCKLEY       FAIR      45  37  76 E9        30.22S
CLOQUET        CLOUDY    43  34  70 E10       30.23R
MCGREGOR       MOSUNNY   43  37  81 SE12G17   30.21S
$$
MNZ071>073-080-081-089-090-097-098-211600-
   Southwest Minnesota

CITY           SKY/WX    TMP DP  RH WIND       PRES   REMARKS
MONTEVIDEO     SUNNY     48  41  76 S16       30.11F
GRANITE FALLS  SUNNY     46  40  81 E13       30.13F
CANBY          SUNNY     45  40  82 SE8       30.08F
MARSHALL       SUNNY     46  37  71 SE8       30.09F
REDWOOD FALLS  SUNNY     47  40  76 SE13      30.14R
OLIVIA         SUNNY     50  43  76 SE10      30.14R
PIPESTONE      SUNNY     54  39  58 S10       30.08S
WINDOM         SUNNY     50  43  76 SE5       30.13S
WORTHINGTON    SUNNY     52  41  66 SE8       30.12F
JACKSON        SUNNY     50  41  71 SE8       30.14S
TRACY          SUNNY     53  43  69 S8        30.11S
SLAYTON        SUNNY     49  41  74 SE7       30.12S
$$
MNZ065>067-074>077-082>085-091>093-211600-
   South Central Minnesota

CITY           SKY/WX    TMP DP  RH WIND       PRES   REMARKS
MANKATO        SUNNY     46  37  71 SE12      30.17S
NEW ULM        SUNNY     45  41  87 SE8       30.16R
ST JAMES       SUNNY     46  41  81 SE9       30.16S
FAIRMONT       SUNNY     46  37  71 S7        30.16R
GLENCOE        SUNNY     48  43  81 E13       30.17S
FARIBAULT      SUNNY     48  43  81 E9        30.19S
OWATONNA       SUNNY     48  41  76 E9        30.19S
WASECA         SUNNY     45  36  70 E10       30.20R
ALBERT LEA     SUNNY     48  43  81 SE8       30.18R
$$
MNZ078>079-086>088-094>096-211600-
   Southeast Minnesota

CITY           SKY/WX    TMP DP  RH WIND       PRES   REMARKS
ROCHESTER      SUNNY     47  41  80 E9        30.21R
RED WING       SUNNY     46  39  76 SE12      30.21S
STANTON        SUNNY     48  40  76 E7        30.20S
DODGE CENTER   SUNNY     46  43  87 E10       30.19S
WINONA         MOSUNNY   43  41  93 SE6       30.24R
AUSTIN         SUNNY     46  43  87 E8        30.19R
PRESTON        SUNNY     44  39  82 E6        30.21S
$$
ABBREVIATIONS USED IN REMARKS
   TC - TEMPERATURES IN CELSIUS
  WCI - WIND CHILL INDEX
   HX - HEAT INDEX
  VSB - VISIBILITY
$$



USA.gov is the U.S. government's official web portal to all federal, state and local government web resources and services.